Flag for U.S.A. Weather past 2 weeks in Pasadena, Texas, U.S.A.

Now
88 °F

Broken clouds.


Feels Like: 94 °F
Forecast: 74 / 86 °F
Wind: No wind

Location: Houston / Ellington

Current Time: May 30, 2015 at 12:37:16 PM

Latest Report: May 30, 2015 at 11:50 AM


Visibility: 7 mi

Pressure: 30.04 "Hg

Humidity: 59%

Dew point: 72 °F

Location of PasadenaLocation

Historic Weather in Pasadena — Graph

°F

Pasadena temperature yesterday

Maximum temperature yesterday: 88 °F (at 2:50 PM)
Minimum temperature yesterday: 70 °F (at 7:50 AM)
Average temperature yesterday: 79 °F

Past Weeks' High & Low Weather Summary

 TemperatureHumidityPressure
High90 °F (May 21, 11:50 AM)100% (May 19, 3:50 AM)30.16 "Hg (May 19, 3:50 AM)
Low64 °F (May 25, 11:50 PM)55% (May 29, 5:50 PM)29.86 "Hg (May 25, 4:50 PM)
Average78 °F85%30.02 "Hg
* Reported May 15 10:50 AM — May 30 10:50 AM, Pasadena, Weather by CustomWeather, © 2015

Note: Actual official high and low records may vary slightly from our data, if they occured in-between our weather recording intervals... More about our weather records

Advertising

Pasadena weather history for previous 24 hours

 ConditionsComfort  
Time TempWeatherWind HumidityBarometerVisibility
10:50 AM
Sat, May 30
84 °FBroken clouds.5 mph66%30.07 "Hg7 mi
9:50 AM82 °FBroken clouds.5 mph70%30.06 "Hg7 mi
8:50 AM82 °FBroken clouds.5 mph84%30.06 "Hg7 mi
7:50 AM79 °FPartly sunny.No wind89%30.03 "Hg7 mi
6:50 AM75 °FPassing clouds.No wind94%30.02 "Hg7 mi
5:50 AM75 °FPassing clouds.No wind94%30.00 "Hg7 mi
4:50 AM75 °FPassing clouds.No wind94%30.00 "HgN/A
3:50 AM75 °FPassing clouds.No wind94%30.00 "Hg7 mi
2:50 AM77 °FPassing clouds.No wind94%30.00 "Hg7 mi
1:50 AM77 °FPassing clouds.No wind89%30.00 "Hg10 mi
12:50 AM77 °FPassing clouds.No wind89%30.01 "Hg10 mi
11:50 PM
Fri, May 29
77 °FPassing clouds.No wind89%30.01 "Hg10 mi
10:50 PM77 °FPassing clouds.No wind89%30.00 "Hg10 mi
9:50 PM79 °FPassing clouds.5 mph89%30.00 "Hg10 mi
7:50 PM84 °FPassing clouds.8 mph66%29.98 "Hg10 mi
6:50 PM86 °FPassing clouds.7 mph55%29.96 "Hg10 mi
5:50 PM86 °FScattered clouds.8 mph55%29.96 "Hg10 mi
4:50 PM88 °FScattered clouds.8 mph59%29.97 "Hg10 mi
3:50 PM88 °FPartly sunny.8 mph59%29.98 "Hg10 mi
2:50 PM88 °FPartly sunny.8 mph59%30.00 "Hg10 mi
1:50 PM84 °FPartly sunny.7 mph66%30.00 "Hg10 mi
12:50 PM81 °FPartly sunny.7 mph70%29.98 "Hg10 mi
Weather by CustomWeather, © 2015

See weather overviewHow to use our weather pages